TimeEST,TemperatureF,Dew PointF,Humidity,Sea Level PressureIn,VisibilityMPH,Wind Direction,Wind SpeedMPH,Gust SpeedMPH,PrecipitationIn,Events,Conditions,WindDirDegrees,DateUTC
12:53 AM,33.1,25.0,72,29.83,10.0,WSW,16.1,26.5,0.00,,Overcast,240,2013-01-05 05:53:00
1:53 AM,33.1,25.0,72,29.87,10.0,WSW,16.1,26.5,N/A,,Overcast,240,2013-01-05 06:53:00
2:33 AM,33.8,24.8,70,29.90,2.5,West,18.4,25.3,0.00,Snow,Light Snow,260,2013-01-05 07:33:00
2:37 AM,32.0,26.6,80,29.91,1.2,West,21.9,29.9,0.00,Snow,Light Snow,260,2013-01-05 07:37:00
2:47 AM,30.2,26.6,86,29.92,2.0,WSW,15.0,27.6,0.00,Snow,Light Snow,250,2013-01-05 07:47:00
2:49 AM,30.2,26.6,86,29.92,4.0,West,17.3,26.5,0.00,Snow,Light Snow,260,2013-01-05 07:49:00
2:53 AM,30.9,26.1,82,29.94,7.0,West,11.5,21.9,0.00,,Overcast,260,2013-01-05 07:53:00
3:53 AM,30.0,19.9,66,29.99,10.0,West,17.3,23.0,N/A,,Mostly Cloudy,270,2013-01-05 08:53:00
4:53 AM,27.0,17.1,66,30.04,10.0,West,15.0,23.0,N/A,,Clear,270,2013-01-05 09:53:00
5:53 AM,26.1,16.0,66,30.09,10.0,West,12.7,-,N/A,,Clear,260,2013-01-05 10:53:00
6:53 AM,26.1,16.0,66,30.15,10.0,West,13.8,18.4,N/A,,Mostly Cloudy,270,2013-01-05 11:53:00
7:53 AM,26.1,15.1,63,30.19,10.0,West,9.2,-,N/A,,Mostly Cloudy,270,2013-01-05 12:53:00
8:53 AM,24.1,16.0,71,30.24,10.0,North,6.9,-,N/A,,Scattered Clouds,350,2013-01-05 13:53:00
9:53 AM,23.0,12.0,63,30.27,10.0,North,6.9,-,N/A,,Clear,10,2013-01-05 14:53:00
10:53 AM,23.0,12.9,65,30.30,10.0,NW,5.8,-,N/A,,Clear,310,2013-01-05 15:53:00
11:53 AM,23.0,12.2,63,30.28,10.0,WNW,5.8,-,N/A,,Clear,290,2013-01-05 16:53:00
12:53 PM,23.0,12.9,65,30.28,10.0,WNW,3.5,-,N/A,,Clear,300,2013-01-05 17:53:00
1:53 PM,23.0,10.9,60,30.27,10.0,West,9.2,-,N/A,,Clear,280,2013-01-05 18:53:00
2:53 PM,21.9,8.1,55,30.27,10.0,West,5.8,-,N/A,,Clear,280,2013-01-05 19:53:00
3:53 PM,21.0,7.0,55,30.29,10.0,West,9.2,-,N/A,,Clear,270,2013-01-05 20:53:00
4:53 PM,19.9,6.1,55,30.28,10.0,Calm,Calm,-,N/A,,Clear,0,2013-01-05 21:53:00
5:53 PM,10.9,3.0,70,30.25,10.0,Calm,Calm,-,N/A,,Clear,0,2013-01-05 22:53:00
6:53 PM,7.0,1.9,80,30.25,10.0,Calm,Calm,-,N/A,,Clear,0,2013-01-05 23:53:00
7:53 PM,12.9,8.1,81,30.24,10.0,Calm,Calm,-,N/A,,Clear,0,2013-01-06 00:53:00
8:53 PM,6.1,1.9,83,30.22,10.0,Calm,Calm,-,N/A,,Mostly Cloudy,0,2013-01-06 01:53:00
9:53 PM,10.0,7.0,87,30.19,10.0,ENE,3.5,-,N/A,,Overcast,60,2013-01-06 02:53:00
10:53 PM,15.1,10.0,80,30.19,10.0,Calm,Calm,-,N/A,,Overcast,0,2013-01-06 03:53:00
11:53 PM,17.1,10.0,74,30.15,10.0,ENE,5.8,-,N/A,,Overcast,70,2013-01-06 04:53:00